Theta_e
300 300 299 299 299 299 299 299 299 298 298 298 298 298 298 299 299 301 302 303 305 306 308 308 306 305 304 302 304 304 308 311 308 305 305 303 302 303 305 303 304 305 304 302 302 303 304
299 299 299 298 298 298 299 298 298 298 298 297 297 297 297 297 297 298 300 301 302 303 305 307 307 305 304 303 301 303 308 309 308 306 305 302 301 302 303 303 304 304 304 305 304 305 304
299 299 299 299 299 299 299 299 299 299 299 298 298 298 297 297 298 298 297 298 299 301 302 304 307 306 305 304 302 302 302 302 307 306 304 304 304 303 303 304 302 304 305 303 303 303 305
301 301 301 301 301 299 300 300 300 300 300 299 299 299 298 298 298 297 297 297 297 298 300 302 305 307 305 303 303 302 302 301 303 306 306 305 304 303 303 303 303 305 304 304 302 301 303
299 298 298 298 298 298 298 299 299 299 300 300 300 299 298 298 298 297 297 297 297 296 297 300 304 305 306 303 301 301 301 301 305 306 306 305 304 304 304 304 303 302 303 302 303 300 301
297 297 297 297 297 297 297 296 297 297 298 299 299 299 299 298 298 297 297 296 296 297 300 303 304 304 302 303 301 305 307 304 306 306 306 304 303 303 302 302 304 303 303 300 301 300 301
297 296 296 296 296 296 296 296 296 296 296 296 297 298 298 298 298 297 297 296 293 294 296 296 296 302 301 301 303 305 307 306 306 305 308 304 305 305 304 303 301 301 301 301 299 299 302
295 296 296 295 295 295 295 295 295 295 296 296 296 297 297 297 298 297 296 295 295 294 295 295 295 297 297 300 302 301 306 307 307 309 307 306 308 304 302 302 302 300 301 300 300 301 301
295 295 295 295 295 295 295 295 295 295 295 296 296 296 296 297 297 296 295 294 295 293 294 293 294 295 297 300 301 302 304 308 308 308 310 311 309 305 302 303 304 303 302 300 303 302 301
295 294 294 295 295 295 294 295 294 295 295 295 295 295 296 296 295 294 294 294 293 292 286 290 297 298 298 300 301 301 301 304 307 308 308 309 309 308 304 304 303 304 301 302 303 303 304
294 294 294 293 294 295 295 295 295 295 294 295 295 295 296 296 295 294 294 293 292 293 283 290 300 300 299 301 301 301 301 302 304 307 307 306 307 308 305 306 303 304 301 302 303 303 303
294 295 293 293 293 295 294 295 294 294 295 295 295 295 296 296 295 295 294 293 292 282 283 293 297 296 295 294 297 302 301 302 304 307 305 305 302 308 308 303 303 302 304 304 304 305 306
294 294 293 293 292 294 294 295 294 294 295 295 295 295 296 295 294 294 293 291 285 282 287 289 296 294 294 293 293 302 303 305 306 308 309 308 305 302 303 304 302 304 306 307 312 310 312
293 293 292 292 292 293 294 294 294 294 294 295 295 295 294 294 294 294 292 291 290 283 289 292 291 292 292 294 296 298 302 305 304 306 306 310 309 305 302 307 305 305 308 313 311 306 310
294 293 292 292 292 292 293 293 294 294 294 294 294 294 294 293 293 294 294 292 288 287 291 291 290 291 292 292 293 294 300 302 303 305 310 307 308 304 302 303 305 305 309 308 306 294 306
292 293 292 292 292 291 292 293 293 293 293 294 293 292 292 293 293 293 293 293 285 289 291 291 290 291 292 292 295 296 292 302 303 303 305 307 306 304 304 303 304 306 307 311 308 308 309
292 292 291 291 291 291 291 292 292 293 293 293 292 292 291 291 293 293 292 283 287 290 290 288 288 291 292 293 293 293 293 293 300 304 305 307 305 303 303 305 308 305 309 307 308 308 310
292 292 291 291 291 291 291 291 291 292 293 292 291 287 291 292 288 275 279 283 291 291 290 290 290 290 291 292 292 293 295 301 298 300 306 307 309 303 306 304 303 305 307 307 312 308 303
291 292 291 291 290 290 291 291 291 292 292 292 292 287 291 291 287 279 278 282 287 290 291 290 289 291 292 294 295 296 297 298 298 301 303 306 309 309 301 305 304 306 304 307 305 306 306
291 291 291 291 290 290 290 291 291 292 292 292 292 289 288 292 285 285 279 286 283 287 289 291 291 291 292 293 294 296 298 298 299 299 300 300 305 310 306 305 305 303 306 306 307 308 308
291 291 291 291 290 290 290 290 291 291 292 292 291 288 287 290 285 286 289 285 287 288 289 288 289 294 294 294 294 298 298 298 299 298 298 299 298 294 302 304 305 304 303 303 307 307 307
291 291 291 290 290 289 289 289 290 291 291 291 291 286 285 280 285 287 290 290 290 290 289 288 291 292 293 294 295 297 297 297 297 297 298 298 298 298 299 299 303 308 304 303 302 306 307
291 291 290 290 290 289 289 289 290 290 291 291 291 291 290 290 280 288 287 289 290 291 291 291 291 292 294 294 294 295 295 294 295 297 297 298 297 297 298 297 301 304 304 305 304 305 306
291 291 290 289 289 289 289 289 289 290 290 291 291 291 291 291 291 289 289 290 290 291 292 291 291 292 293 293 293 293 293 293 293 293 296 297 297 297 296 297 301 299 297 298 300 303 303
291 290 289 289 289 289 288 288 289 289 290 291 291 290 292 290 290 291 290 290 290 291 292 292 291 290 292 292 292 286 283 287 287 293 294 295 295 293 295 296 297 303 304 304 305 305 303
290 290 289 289 288 288 288 288 288 289 290 291 291 291 291 291 291 291 290 290 290 290 285 290 289 289 291 293 287 285 283 280 285 292 294 295 295 291 288 294 295 298 303 300 304 303 300
290 289 289 288 288 288 288 288 288 289 290 291 291 292 291 292 290 290 291 291 289 289 288 286 290 289 291 291 286 280 283 283 283 287 291 292 289 286 285 289 293 294 296 299 299 304 298
290 289 289 288 288 287 287 288 288 289 290 291 291 292 292 292 292 290 291 291 290 290 289 285 288 285 286 290 290 282 276 282 282 285 288 292 291 289 285 283 289 292 295 294 299 301 299
290 289 289 288 287 287 287 288 288 289 289 290 291 292 292 293 292 291 291 291 291 291 291 289 290 288 291 290 286 284 281 278 278 282 287 291 291 291 293 293 292 292 294 295 297 300 297
Wind_Speed
19 19 20 20 20 20 20 21 21 21 22 21 21 22 21 23 23 25 25 24 25 24 25 19 18 17 14 5 10 17 18 9 8 4 5 5 4 4 5 4 4 4 4 6 6 3 4
18 19 20 19 19 19 19 20 21 21 21 23 23 22 22 23 24 23 25 25 26 25 26 28 18 16 9 13 11 12 11 13 6 5 4 7 6 6 4 4 6 4 5 3 4 4 4
16 17 17 18 18 19 19 19 20 21 20 21 21 22 23 23 24 24 25 27 27 27 27 27 25 19 11 19 23 31 31 25 15 14 4 10 6 5 3 3 6 2 3 3 6 5 5
17 19 19 19 20 21 23 23 23 23 22 21 22 22 22 24 24 26 26 28 28 28 28 26 24 21 13 10 26 29 31 32 25 20 17 10 9 5 4 2 3 3 1 2 3 8 4
17 19 20 20 21 22 23 24 24 24 24 23 23 23 23 23 22 25 26 28 30 35 31 25 16 7 18 9 8 20 21 19 9 17 10 6 5 5 3 5 2 2 3 5 7 11 4
18 19 19 21 22 23 25 25 26 25 26 27 26 25 24 25 25 26 27 29 33 27 14 9 9 4 3 9 6 4 6 15 8 4 3 5 3 5 3 6 11 5 4 5 7 4 3
18 20 22 23 24 25 26 26 27 28 29 28 26 26 24 25 25 24 28 26 8 5 12 10 19 16 6 6 9 2 1 4 6 2 9 4 5 16 16 16 6 6 5 7 4 5 5
20 21 23 24 25 26 26 27 27 28 28 26 26 25 25 25 23 20 19 3 5 8 16 18 21 26 35 33 20 9 4 5 6 17 7 5 23 11 8 7 12 6 6 7 4 3 5
20 23 25 25 25 25 26 27 28 27 27 26 24 24 26 24 19 14 7 5 7 24 7 12 15 18 13 23 26 22 10 7 9 15 22 26 4 15 13 9 16 18 18 5 3 1 3
22 25 26 26 25 25 26 26 26 26 27 25 24 24 23 23 11 2 2 3 16 16 3 9 5 7 8 7 16 23 33 14 10 17 18 20 24 13 12 19 17 19 8 6 4 1 4
23 25 26 28 26 26 26 25 25 25 25 24 23 23 22 15 7 3 2 11 16 2 4 10 5 11 20 9 5 6 34 21 29 12 12 10 13 16 13 15 15 7 9 13 7 4 2
23 22 27 28 27 24 27 24 25 25 25 24 23 21 20 14 11 8 6 8 3 6 6 7 3 9 15 20 23 7 5 11 15 15 13 16 3 18 13 5 16 8 8 6 4 3 4
22 24 27 29 27 27 26 27 22 24 24 23 23 20 17 12 2 4 4 3 4 4 6 8 4 13 17 27 24 16 13 19 16 20 21 16 10 5 6 7 9 6 12 2 1 2 9
23 24 27 28 27 28 26 26 23 23 23 22 22 19 18 15 12 10 5 1 4 8 8 9 12 17 18 15 13 17 12 15 24 19 5 15 11 17 5 9 8 13 16 7 8 5 3
22 25 26 28 28 26 28 26 24 23 22 22 22 18 11 11 11 15 2 4 6 8 4 5 16 14 16 3 8 12 15 17 13 28 6 15 15 1 9 5 14 8 14 8 6 2 3
23 24 26 30 29 28 26 26 24 22 22 21 13 11 8 8 7 11 4 13 5 3 4 3 11 5 21 19 11 7 10 8 14 21 20 4 3 7 10 4 5 16 13 7 1 5 4
24 24 27 29 30 27 26 26 23 23 22 20 5 3 3 2 10 2 4 6 6 6 5 5 8 12 18 19 17 18 11 23 11 11 19 5 4 1 8 12 20 5 14 6 5 4 8
22 23 26 28 29 26 26 25 25 23 21 11 2 2 2 15 2 1 3 6 4 10 6 9 7 12 16 20 21 16 21 9 6 4 17 20 3 5 14 7 1 7 10 10 11 8 2
25 23 25 27 29 29 27 25 25 22 17 8 2 3 8 3 3 2 5 4 3 6 14 5 6 6 11 17 12 10 17 6 8 7 2 13 9 10 3 3 3 15 11 23 0 3 8
23 23 24 26 27 29 28 27 26 22 17 11 2 2 2 2 2 4 2 6 5 4 13 8 14 14 19 20 18 11 9 3 8 2 11 7 6 4 14 16 7 2 13 18 12 5 12
24 27 24 26 28 28 29 26 25 22 18 10 3 3 4 2 4 6 5 4 6 7 7 4 6 10 11 13 17 7 6 2 4 6 3 4 6 5 6 7 6 6 7 8 18 18 8
26 26 25 25 27 28 29 27 25 23 19 8 2 2 2 3 2 6 10 11 15 20 6 6 10 16 10 12 13 8 5 2 1 1 1 2 1 6 6 12 5 3 5 8 10 17 10
25 26 27 28 28 28 28 28 25 23 19 5 8 11 6 13 3 5 6 11 17 12 11 18 16 14 13 14 15 6 6 7 4 2 2 3 3 2 2 6 6 3 4 3 7 8 16
25 25 27 28 29 30 29 30 25 25 22 18 7 7 3 3 6 8 12 11 16 17 18 16 9 6 5 2 7 3 3 6 6 6 3 1 2 3 1 4 1 2 3 8 8 9 7
25 25 28 27 29 32 29 30 27 27 25 26 20 7 4 5 7 15 14 13 15 14 16 16 18 10 3 2 2 5 5 6 5 6 2 3 1 2 3 3 5 3 4 5 2 5 5
26 26 28 29 30 32 29 31 27 28 29 30 29 26 9 9 11 12 10 14 12 10 5 14 10 4 4 2 2 4 3 4 4 5 2 3 1 2 2 5 4 3 7 6 6 4 7
28 28 28 29 31 33 31 32 28 31 32 30 28 24 14 9 15 11 10 9 5 8 5 2 2 1 6 4 3 3 5 5 3 5 4 3 0 4 2 1 5 5 6 4 4 3 8
29 29 28 29 31 33 34 31 33 33 33 33 33 29 19 6 14 8 14 14 4 11 8 4 3 2 2 5 4 4 3 5 2 4 5 5 5 4 2 3 6 5 4 5 4 7 3
30 28 28 30 32 33 33 33 35 33 35 35 36 30 26 10 6 15 36 36 26 30 11 7 5 5 5 3 2 3 2 2 2 2 2 3 6 4 6 5 2 5 2 3 1 4 4
Wind_Direction
26 24 20 18 16 12 9 6 5 4 2 356 357 353 347 341 340 340 336 331 333 332 335 303 310 323 343 350 256 284 315 324 315 278 227 172 200 163 207 216 145 235 234 180 231 260 248
20 17 13 10 8 5 0 358 354 354 354 353 350 349 348 344 341 336 331 333 329 326 330 329 299 307 304 273 262 289 312 329 302 264 236 194 202 204 241 227 192 220 219 238 223 202 222
9 8 5 0 355 355 350 344 344 342 343 341 339 339 340 337 338 336 333 326 325 326 315 313 314 288 245 249 269 284 290 283 284 300 250 231 225 180 166 258 230 210 254 304 229 204 228
6 6 3 1 356 348 345 342 338 335 332 331 329 329 331 331 331 331 330 325 323 309 303 297 301 292 267 270 278 264 275 278 267 265 255 256 218 196 193 253 360 204 194 213 268 160 239
357 354 353 350 345 344 342 340 337 335 329 326 326 323 326 326 327 329 327 323 314 302 293 284 287 266 277 274 259 276 264 244 266 251 241 247 171 192 134 139 322 282 222 219 306 196 145
355 354 351 348 345 342 336 333 329 329 329 334 329 323 322 322 324 328 326 322 311 310 314 250 233 291 240 261 252 260 281 240 214 174 226 200 182 178 171 163 213 195 220 236 222 215 171
355 350 345 343 338 337 336 334 333 331 330 323 327 325 319 318 320 327 328 342 9 343 21 316 294 278 310 264 287 210 185 164 242 248 186 207 190 209 188 196 178 184 198 210 231 232 167
349 348 344 339 338 338 334 337 337 335 331 328 320 322 318 316 314 320 322 31 8 326 297 250 270 277 268 279 279 273 170 169 194 219 183 190 229 208 177 192 203 182 194 229 286 169 178
346 349 343 342 342 339 336 336 334 330 326 327 320 316 317 311 306 309 339 1 346 339 295 280 240 247 239 216 243 244 198 202 219 223 213 220 192 181 186 188 202 219 219 166 225 134 226
344 344 343 341 338 336 336 331 328 328 322 324 321 319 312 316 309 253 4 357 336 333 327 289 257 271 222 221 263 224 229 215 219 224 219 236 232 194 198 212 190 218 158 152 157 83 241
345 341 341 338 333 333 330 326 324 321 323 322 320 316 315 290 282 271 294 326 332 89 351 287 320 330 326 188 318 224 219 202 224 206 188 215 174 189 216 219 184 208 151 187 171 177 28
338 339 338 336 331 329 325 321 322 325 321 323 319 311 317 307 276 258 279 328 358 50 255 285 295 1 351 323 308 296 200 224 216 221 224 222 271 196 205 149 186 136 96 61 62 103 267
336 340 337 337 331 328 327 328 323 322 322 320 319 311 306 300 251 219 243 70 39 136 295 271 283 326 323 307 314 247 247 209 215 202 223 205 219 285 146 120 160 169 152 72 70 191 238
333 336 336 338 334 332 331 327 324 320 321 322 321 313 296 283 276 213 140 110 180 228 235 296 311 317 307 328 329 349 237 220 220 229 210 215 205 198 201 196 177 183 179 163 180 198 197
334 333 337 333 334 328 328 328 327 325 322 326 323 319 302 284 266 197 155 237 200 209 265 311 323 302 298 336 317 306 267 239 228 216 212 201 225 80 191 160 150 188 205 169 101 11 82
329 336 337 332 333 329 323 325 328 324 325 330 330 318 282 275 219 169 210 250 234 226 327 307 282 242 292 312 301 336 335 268 233 223 202 270 203 199 189 125 218 183 168 172 315 150 233
329 333 336 334 330 331 323 319 323 323 324 327 311 305 263 247 170 186 232 228 234 243 224 208 263 275 282 301 295 302 265 288 288 216 207 215 202 328 142 207 190 144 187 195 128 170 187
324 333 331 335 333 330 322 322 319 315 322 326 288 294 162 143 138 291 194 201 235 278 233 256 258 263 267 279 281 277 269 272 305 280 212 211 275 146 206 202 270 192 188 186 194 217 226
324 327 328 330 332 329 325 321 324 309 313 314 230 233 192 186 215 248 305 296 246 262 267 252 260 257 294 284 291 264 293 238 277 24 13 197 210 191 3 294 251 202 209 200 160 115 206
320 320 321 322 328 329 324 321 319 315 303 297 258 302 291 223 157 148 150 260 241 255 262 251 256 270 281 270 261 263 274 269 300 72 10 347 233 259 200 211 143 209 206 204 206 183 209
318 316 317 319 326 325 326 317 316 316 304 292 226 229 187 253 265 222 205 225 239 275 237 168 285 243 274 298 313 209 217 240 248 345 39 346 14 20 293 326 194 179 195 197 216 229 187
314 314 319 319 319 322 322 317 311 310 308 275 273 157 234 247 182 189 227 248 260 265 227 262 250 280 279 279 289 309 304 229 285 82 320 313 22 357 32 360 2 270 341 219 216 231 251
312 317 318 319 319 321 319 316 306 305 301 239 234 237 207 250 194 183 209 238 254 256 253 243 255 273 274 290 289 235 291 306 263 164 201 227 146 81 43 329 329 223 250 271 267 228 223
312 315 319 320 317 318 317 315 304 299 294 281 258 271 257 247 223 225 251 236 242 245 247 265 253 230 244 345 297 272 284 274 286 284 169 205 294 106 103 346 221 312 272 226 242 277 280
309 315 317 318 316 315 314 312 299 300 298 290 286 245 251 264 238 249 233 246 256 245 243 254 261 238 184 84 288 358 335 3 312 268 223 188 200 110 119 153 294 121 22 33 7 291 231
309 312 316 317 314 315 315 311 302 300 299 295 281 267 244 264 232 237 243 228 230 237 283 249 257 200 177 167 127 175 223 224 302 305 284 190 350 110 125 147 189 180 155 223 140 281 328
306 310 312 316 315 318 313 309 299 301 300 295 286 272 257 226 251 236 226 226 180 190 230 263 211 180 188 186 173 166 240 171 199 186 184 138 63 172 261 149 278 241 176 153 90 289 328
305 306 309 313 317 316 315 311 304 301 303 303 293 283 254 253 263 212 224 215 197 203 216 211 74 310 148 195 184 204 164 231 118 190 183 171 156 179 135 80 274 201 114 165 188 193 131
304 305 309 314 314 316 314 309 307 304 304 305 293 274 262 246 244 231 235 231 210 232 221 186 197 155 189 160 202 118 151 66 168 259 11 230 194 185 187 212 171 204 295 319 157 178 295